Tracking 29892 objects as of 21-Nov-2024
HD Live streaming from Space Station
objects crossing your sky now

COSMOS 886 DEB

Track COSMOS 886 DEB now!
10-day predictions


NORAD ID: 9822
Int'l Code: 1976-126AJ
Perigee: 576.0 km
Apogee: 2,005.2 km
Inclination: 65.8 °
Period: 111.2 minutes
Semi major axis: 7661 km
RCS: 0.0577 m2 (small)
Launch date: December 27, 1976
Source: Commonwealth of Independent States (former USSR) (CIS)
Launch site: TYURATAM MISSILE AND SPACE COMPLEX (TTMTR)

Note: This is SATELLITE DEBRIS
Your satellite tracking list
Your tracking list is empty




NASA's NSSDC Master Catalog

Two Line Element Set (TLE):
1 09822U 76126AJ  24324.50122155  .00003633  00000-0  16586-2 0  9992
2 09822  65.7807 235.8017 0932728 335.6179  20.3259 12.94572443232983
Source of the keplerian elements: AFSPC